Location: Bauerbach
(50.4985°N, 10.3912°E)
Time: 09:43:10
(UTC+00:00)

Meteor 1-23 Rocket - Pass Details

Date: 13 January 2026
Orbit: 840 x 882 km, 81.3° (Epoch: 18 February)

Event Time Altitude Azimuth Distance (km) Brightness Sun altitude
Exits shadow 04:25:50 48° 343° (NNW) 1,092 4.6 -26.0°
Maximum altitude 04:27:29 85° 259° (W) 852 4.0 -25.8°
Drops below altitude 10° 04:33:03 10° 172° (S) 2,454 6.7 -24.9°
Sets 04:35:27 0° 172° (S) 3,387 7.5 -24.5°
